Flag for Norway Weather past 2 weeks in Askim, Norway

Now
48 °F

Light rain. Partly sunny.


Feels Like: 45 °F
Forecast: 42 / 58 °F
Wind: 8 mph from South

Location: Rygge

Current Time: May 30, 2015 at 7:01:35 PM

Latest Report: May 30, 2015 at 6:20 PM


Visibility: N/A

Pressure: 29.47 "Hg

Humidity: 82%

Dew point: 43 °F

Location of AskimLocation

Historic Weather in Askim — Graph

°F

Askim temperature yesterday

Maximum temperature yesterday: 54 °F (at 10:50 AM)
Minimum temperature yesterday: 45 °F (at 3:50 AM)
Average temperature yesterday: 50 °F

Past Weeks' High & Low Weather Summary

 TemperatureHumidityPressure
High64 °F (May 23, 4:50 PM)100% (May 16, 9:50 PM)30.04 "Hg (May 16, 9:50 PM)
Low34 °F (May 18, 4:50 AM)30% (May 23, 6:20 PM)29.45 "Hg (May 19, 6:50 AM)
Average49 °F75%29.76 "Hg
* Reported May 15 5:20 PM — May 30 5:50 PM, Askim, Weather by CustomWeather, © 2015

Note: Actual official high and low records may vary slightly from our data, if they occured in-between our weather recording intervals... More about our weather records

Advertising

Askim weather history for previous 24 hours

 ConditionsComfort  
Time TempWeatherWind HumidityBarometerVisibility
5:50 PM
Sat, May 30
48 °FPartly sunny.8 mph82%29.47 "HgN/A
5:20 PM48 °FScattered showers. Broken clouds.8 mph87%29.47 "HgN/A
4:50 PM48 °FLight rain. Broken clouds.3 mph94%29.47 "HgN/A
4:20 PM50 °FScattered showers. Partly sunny.5 mph82%29.47 "HgN/A
3:50 PM52 °FBroken clouds.8 mph82%29.47 "HgN/A
3:20 PM52 °FPartly sunny.10 mph82%29.47 "HgN/A
2:50 PM50 °FPartly sunny.12 mph82%29.47 "HgN/A
2:20 PM48 °FPartly sunny.10 mph87%29.47 "HgN/A
1:50 PM48 °FPartly sunny.13 mph87%29.47 "HgN/A
1:20 PM48 °FPartly sunny.15 mph87%29.47 "HgN/A
12:50 PM48 °FPartly sunny.13 mph82%29.47 "HgN/A
12:20 PM48 °FPartly sunny.12 mph82%29.47 "HgN/A
11:50 AM46 °FPartly sunny.14 mph87%29.47 "HgN/A
11:20 AM46 °FMostly cloudy.16 mph87%29.47 "HgN/A
10:50 AM45 °FBroken clouds.16 mph93%29.47 "HgN/A
10:20 AM45 °FPartly sunny.16 mph93%29.47 "HgN/A
9:50 AM45 °FDrizzle. Partly sunny.18 mph87%29.47 "HgN/A
9:20 AM45 °FLight rain. Broken clouds.16 mph87%29.50 "Hg6 mi
8:50 AM45 °FLight rain. Broken clouds.15 mph87%29.50 "HgN/A
8:20 AM45 °FLight rain. Broken clouds.15 mph93%29.50 "HgN/A
7:50 AM45 °FLight rain. More clouds than sun.15 mph93%29.50 "Hg6 mi
7:20 AM45 °FLight rain. Broken clouds.16 mph93%29.53 "HgN/A
6:50 AM46 °FLight rain. Broken clouds.14 mph87%29.53 "HgN/A
6:20 AM46 °FLight rain. Partly sunny.14 mph93%29.53 "HgN/A
5:50 AM46 °FRain. Mostly cloudy.14 mph93%29.53 "HgN/A
5:20 AM46 °FDrizzle. Mostly cloudy.13 mph93%29.53 "HgN/A
4:50 AM45 °FDrizzle. Mostly cloudy.10 mph100%29.53 "HgN/A
4:20 AM45 °FLight rain. Mostly cloudy.8 mph100%29.53 "Hg6 mi
3:50 AM45 °FLight rain. Partly cloudy.8 mph100%29.56 "HgN/A
3:20 AM45 °FLight rain. Partly cloudy.9 mph100%29.56 "HgN/A
2:50 AM45 °FLight rain. Overcast.9 mph93%29.59 "HgN/A
2:20 AM45 °FLight rain. Mostly cloudy.8 mph93%29.59 "HgN/A
1:50 AM46 °FLight rain. Mostly cloudy.8 mph87%29.59 "HgN/A
1:20 AM46 °FLight rain. Partly cloudy.8 mph93%29.59 "HgN/A
12:50 AM46 °FPartly cloudy.8 mph87%29.62 "HgN/A
12:20 AM48 °FPartly cloudy.7 mph82%29.62 "HgN/A
11:50 PM
Fri, May 29
48 °FMostly cloudy.7 mph82%29.62 "HgN/A
11:20 PM46 °FPartly cloudy.7 mph82%29.65 "HgN/A
10:50 PM48 °FPartly sunny.8 mph76%29.65 "HgN/A
10:20 PM48 °FBroken clouds.10 mph76%29.65 "HgN/A
9:50 PM48 °FBroken clouds.12 mph82%29.65 "HgN/A
9:20 PM50 °FScattered clouds.10 mph76%29.62 "HgN/A
8:50 PM50 °FScattered clouds.15 mph76%29.62 "HgN/A
8:20 PM50 °FScattered clouds.16 mph71%29.62 "HgN/A
7:50 PM52 °FScattered clouds.17 mph72%29.62 "HgN/A
7:20 PM52 °FScattered clouds.16 mph72%29.62 "HgN/A
Weather by CustomWeather, © 2015

See weather overviewHow to use our weather pages